Regional Weather Roundup
Issued by NWS

Home | Current Version | Previous Version | Graphics & Text | Print | Product List | Glossary On
Versions: 1 2 3 4 5 6 7 8 9 10 11 12 13 14 15 16 17 18 19 20 21 22 23 24 25 26 27 28 29 30 31 32 33 34 35 36 37 38 39 40 41 42 43 44 45 46 47 48 49 50
000
ASUS43 KLOT 311708
RWRIL

ILLINOIS REGIONAL WEATHER ROUNDUP
NATIONAL WEATHER SERVICE CHICAGO/ROMEOVILLE IL
1200 PM CDT TUE MAY 31 2016

NOTE: "FAIR" INDICATES FEW OR NO CLOUDS BELOW 12,000 FEET WITH NO
SIGNIFICANT WEATHER AND/OR OBSTRUCTIONS TO VISIBILITY.

* THESE STATIONS ARE NOT UNDER NWS QUALITY CONTROL. THEY ALSO MAY NOT
  REPORT WEATHER SUCH AS PRECIPITATION OR FOG.

ILZ001-002-007-009-015-016-024-311800-
NORTHWEST ILLINOIS

CITY           SKY/WX    TMP DP  RH WIND       PRES   REMARKS
MOLINE         MOSUNNY   79  60  52 S8        29.95S HX  80
STERLING*      LGT RAIN  68  63  84 NE5       29.99S
SAVANNA*       CLOUDY    66  63  90 E12       29.99R
$$

ILZ003-004-008-010-011-017-018-311800-
NORTH CENTRAL ILLINOIS

CITY           SKY/WX    TMP DP  RH WIND       PRES   REMARKS
ROCKFORD       TSTM      65  60  84 SW7       30.05R
FREEPORT*      RAIN      63  61  93 S10G18    30.07R
ROCHELLE*      TSTM      66  62  87 W9        30.03R
DE KALB*       CLOUDY    70  61  72 W17G26    30.01R
$$

ILZ005-006-012>014-019>023-311800-
NORTHEAST ILLINOIS

CITY           SKY/WX    TMP DP  RH WIND       PRES   REMARKS
CHICAGO-OHARE  PTSUNNY   81  58  45 E10       29.97F HX  81
CHICAGO-MIDWAY PTSUNNY   82  58  43 E12       29.98S HX  82
AURORA         CLOUDY    81  60  48 S8        29.98R HX  82
LANSING*       CLOUDY    82  57  42 SE9       29.99R HX  82
JOLIET*        MOSUNNY   84  61  44 S8        29.97S HX  84
WAUKEGAN       SUNNY     71  56  58 E8        30.01S
DUPAGE AIRPORT MOSUNNY   81  58  45 SE10      29.97S HX  81
KANKAKEE*      PTSUNNY   84  61  45 SE7       29.97S HX  84
WHEELING       SUNNY     79  55  43 E12       29.99F
MORRIS*        PTSUNNY   83  60  46 CALM      29.96S HX  83
ROMEOVILLE*    MOSUNNY   84  55  37 SE7       29.97S HX  82
NORTHERLY ISL    N/A     69  57  65 E5          N/A
$$

LMZ740>746-311800-
SOUTHERN LAKE MICHIGAN

STATION/POSITION SKY/WX   TEMP    WIND        PRES    VSBY  WAVE
                          AIR SEA DIR/SP/G                  HT/PER
                          (F)     (DEG/KT/KT) (MB)    (MI)  (FT/S)
SOUTHERN BUOY              57 54   70/  8/  8 1015.9F         0
WILMETTE HARBOR            63 61   80/  4/  6   N/A           1
HARRISON CRIB              65      90/  9/ 11   N/A
BURNHAM HARBOR             69      CALM  /  7   N/A
CALUMET HARBOR             67      40/  6/  9 1015.2F
BURNS HARBOR               67      40/  8/ 15 1016.3S
MICHIGAN CITY              72      10/  9/ 10   N/A
MICHIGAN CITY 6N           67 63   50/  4/  6   N/A           0
ST. JOSEPH                 74 66   80/  8/ 10   N/A           1
$$

ILZ025>027-034>036-040-047-049-050-058-095>099-311800-
WEST-CENTRAL ILLINOIS

CITY           SKY/WX    TMP DP  RH WIND       PRES   REMARKS
QUINCY         MOSUNNY   78  63  59 S6        29.96F HX  80
GALESBURG*     SUNNY     77  62  58 S7        29.96F
MACOMB*        SUNNY     79  60  52 CALM      29.98F HX  80
JACKSONVILLE*  CLOUDY    74  61  63 SE9       29.99F
PITTSFIELD*    CLOUDY    77  64  64 SE7       29.99F
$$

ILZ028>032-037-038-041>044-048-051>054-059>061-311800-
CENTRAL ILLINOIS

CITY           SKY/WX    TMP DP  RH WIND       PRES   REMARKS
PONTIAC        SUNNY     86  64  48 SE12      29.96F HX  87
BLOOMINGTON    CLOUDY    83  63  50 S13       29.99S HX  84
DECATUR        CLOUDY    75  61  61 W17G24    30.00R
PEORIA         CLOUDY    80  61  52 VRB5      29.96F HX  81
LACON*         TSTM      74  60  63 SW16G24   29.95S
LINCOLN*       LGT RAIN  70  62  75 W8G17     29.99R
SPRINGFIELD    LGT RAIN  67  64  90 NE5       30.01F FOG
TAYLORVILLE    CLOUDY    71  62  72 W7        30.00S
$$

ILZ033-039-045-046-055>057-062-063-311800-
EAST-CENTRAL ILLINOIS

CITY           SKY/WX    TMP DP  RH WIND       PRES   REMARKS
CHAMPAIGN      CLOUDY    83  58  42 S13       29.99R HX  83
RANTOUL*       MOSUNNY   87  60  40 S9        29.98S HX  86
MATTOON        CLOUDY    81  62  52 CALM      29.99R HX  82
PARIS*         CLOUDY    84  61  45 S6        30.00R HX  84
$$

ILZ079-100>102-311800-
SOUTHWEST ILLINOIS

CITY           SKY/WX    TMP DP  RH WIND       PRES   REMARKS
ALTON          CLOUDY    68  63  83 N9        29.99S
BELLEVILLE     CLOUDY    77  67  70 S6        29.98R
CAHOKIA*       LGT RAIN  72  66  81 S9        29.99R
SPARTA*        CLOUDY    74  65  73 CALM      30.00F
$$

ILZ064>066-069>071-074>076-080>082-084>086-088>090-092>094-311800-
SOUTH-CENTRAL ILLINOIS

CITY           SKY/WX    TMP DP  RH WIND       PRES   REMARKS
CARBONDALE     PTSUNNY   79  69  71 SW9       29.98S HX  81
CAIRO*         CLOUDY    79  66  64 SW6       29.99S HX  81
EFFINGHAM*     SUNNY     85  61  44 SE9       29.99F HX  85
MARION         CLOUDY    82  66  57 SE9       29.99  HX  85
MT. VERNON     MOSUNNY   88  63  42 SE8       29.98F HX  88
CENTRALIA*     CLOUDY    85  69  57 SE8       29.97F HX  89
SALEM*         CLOUDY    85  63  46 SE6       29.97F HX  86
METROPOLIS*    PTSUNNY   84  69  59 CALM      29.98F HX  88
$$

ILZ067-068-072-073-078-083-087-091-311800-
SOUTHEAST ILLINOIS

CITY           SKY/WX    TMP DP  RH WIND       PRES   REMARKS
LAWRENCEVILLE  PTSUNNY   86  56  35 S7        29.99R HX  85
FLORA*         MOSUNNY   87  60  40 SE10G16   29.98S HX  87
FAIRFIELD*     MOSUNNY   85  60  42 SE6       29.96F HX  84
HARRISBURG*    CLOUDY    83  66  55 S5        29.98F HX  85
ROBINSON*      SUNNY     82  60  47 S7        29.99S HX  83
CARMI*         MOSUNNY   86  62  43 SE10      29.97F HX  86
$$

ABBREVIATIONS USED IN REMARKS
   TC - TEMPERATURE IN CELSIUS
  WCI - WIND CHILL INDEX
   HX - HEAT INDEX
  VSB - VISIBILITY
$$





USA.gov is the U.S. government's official web portal to all federal, state and local government web resources and services.